Weather History for Erwin, NC

Change the Weather History Date:

Friday, August 30, 2013

  Actual Average Record
Temperature  
Mean Temperature 76 °F -  
Max Temperature 86 °F 87 °F 97 °F (1983)
Min Temperature 67 °F 65 °F 47 °F (1965)
Cooling Degree Days 12    
Growing Degree Days 26 (Base 50)    
Moisture  
Dew Point 66 °F    
Average Humidity 72    
Maximum Humidity 99    
Minimum Humidity 41    
Precipitation  
Precipitation 0.00 in - - ()
Sea Level Pressure  
Sea Level Pressure 30.01 in    
Wind  
Wind Speed 3 mph (East)    
Max Wind Speed 9 mph    
Max Gust Speed -    
Visibility 9 miles    
Events      
Averages and records for this station are not official NWS values.
T = Trace of Precipitation, MM = Missing Value Source: NWS Daily Summary

Daily Weather History Graph

Daily Weather History Graph

Search for Another Location

Airport:

Trip Planner

Search our weather history database for the weather conditions in past years. The results will help you decide how hot, cold, wet, or windy it might be!

Date:

Astronomy

Aug. 30, 2013 Rise Set
Actual Time 6:45 AM EDT 7:44 PM EDT
Civil Twilight 6:19 AM EDT 8:10 PM EDT
Nautical Twilight 5:48 AM EDT 8:41 PM EDT
Astronomical Twilight 5:17 AM EDT 9:13 PM EDT
Moon 1:29 AM EDT (8/30) 3:52 PM EDT (8/30)
Length of Visible Light 13h 50m
Length of Day
12h 58m
Waning Crescent, 29% of the Moon is Illuminated
Aug 30
Waning Crescent
Sep 5
New
Sep 12
First Quarter
Sep 19
Full
Sep 26
Last Quarter

Hourly Weather History & Observations

Time (EDT) Temp. Heat Index Dew Point Humidity Pressure Visibility Wind Dir Wind Speed Gust Speed Precip Events Conditions
12:15 AM 74.3 °F - 69.3 °F 84% 30.02 in 10.0 mi ENE 5.8 mph - N/A   Clear
12:35 AM 73.9 °F - 68.4 °F 83% 30.02 in 10.0 mi ENE 4.6 mph - N/A   Clear
12:55 AM 73.6 °F - 68.4 °F 84% 30.02 in 10.0 mi ENE 4.6 mph - N/A   Clear
1:15 AM 72.7 °F - 68.9 °F 88% 30.02 in 10.0 mi ENE 3.5 mph - N/A   Clear
1:35 AM 72.1 °F - 69.3 °F 91% 30.02 in 10.0 mi ENE 4.6 mph - N/A   Clear
1:55 AM 72.3 °F - 69.3 °F 90% 30.01 in 10.0 mi East 3.5 mph - N/A   Clear
2:15 AM 71.8 °F - 69.4 °F 92% 30.01 in 10.0 mi Calm Calm - N/A   Clear
2:35 AM 71.1 °F - 69.1 °F 93% 30.01 in 10.0 mi NE 4.6 mph - N/A   Clear
2:55 AM 70.3 °F - 69.1 °F 96% 30.01 in 10.0 mi Calm Calm - N/A   Clear
3:15 AM 70.2 °F - 68.7 °F 95% 30.01 in 10.0 mi NNE 3.5 mph - N/A   Clear
3:35 AM 68.9 °F - 68.2 °F 98% 30.01 in 7.0 mi North 3.5 mph - N/A   Clear
3:55 AM 69.1 °F - 68.4 °F 98% 30.02 in 7.0 mi Calm Calm - N/A   Clear
4:15 AM 68.4 °F - 67.8 °F 98% 30.02 in 7.0 mi Calm Calm - N/A   Clear
4:35 AM 68.0 °F - 67.6 °F 99% 30.02 in 5.0 mi Calm Calm - N/A   Clear
4:55 AM 68.2 °F - 68.0 °F 99% 30.02 in 7.0 mi Calm Calm - N/A   Clear
5:15 AM 68.0 °F - 67.6 °F 99% 30.02 in 5.0 mi Calm Calm - N/A   Scattered Clouds
5:35 AM 67.6 °F - 67.5 °F 99% 30.03 in 5.0 mi Calm Calm - N/A   Mostly Cloudy
5:55 AM 68.4 °F - 68.0 °F 99% 30.03 in 7.0 mi NE 3.5 mph - N/A   Overcast
6:55 AM 68.0 °F - 67.3 °F 98% 30.05 in 5.0 mi Calm Calm - N/A   Mostly Cloudy
7:15 AM 67.6 °F - 67.1 °F 98% 30.05 in 5.0 mi NNE 3.5 mph - N/A   Scattered Clouds
7:35 AM 68.9 °F - 68.0 °F 97% 30.06 in 7.0 mi Calm Calm - N/A   Mostly Cloudy
7:55 AM 69.1 °F - 68.0 °F 96% 30.06 in 7.0 mi NE 3.5 mph - N/A   Scattered Clouds
8:15 AM 70.2 °F - 68.0 °F 93% 30.06 in 10.0 mi NE 6.9 mph - N/A   Clear
8:35 AM 71.4 °F - 67.5 °F 87% 30.06 in 10.0 mi NNE 5.8 mph - N/A   Clear
8:55 AM 72.5 °F - 66.7 °F 82% 30.07 in 10.0 mi NE 9.2 mph - N/A   Clear
10:15 AM 76.3 °F - 65.8 °F 70% 30.07 in 10.0 mi ENE 5.8 mph - N/A   Mostly Cloudy
10:35 AM 76.5 °F - 65.7 °F 69% 30.07 in 10.0 mi NE 4.6 mph - N/A   Scattered Clouds
10:55 AM 78.1 °F - 66.4 °F 67% 30.06 in 10.0 mi East 4.6 mph - N/A   Scattered Clouds
11:15 AM 78.1 °F - 65.8 °F 66% 30.06 in 10.0 mi East 4.6 mph - N/A   Scattered Clouds
11:35 AM 79.0 °F - 65.1 °F 62% 30.05 in 10.0 mi SE 4.6 mph - N/A   Scattered Clouds
11:55 AM 80.4 °F 82.6 °F 66.2 °F 62% 30.05 in 10.0 mi East 4.6 mph - N/A   Scattered Clouds
12:15 PM 81.0 °F 82.5 °F 64.0 °F 56% 30.05 in 7.0 mi ESE 3.5 mph - N/A   Clear
12:35 PM 81.0 °F 82.7 °F 64.8 °F 58% 30.04 in 10.0 mi East 5.8 mph - N/A   Clear
12:55 PM 81.7 °F 83.3 °F 64.4 °F 56% 30.04 in 10.0 mi Calm Calm - N/A   Clear
1:15 PM 82.9 °F 84.4 °F 64.4 °F 53% 30.03 in 10.0 mi Calm Calm - N/A   Clear
1:35 PM 82.0 °F 83.4 °F 64.0 °F 54% 30.02 in 10.0 mi Calm Calm - N/A   Clear
1:55 PM 82.9 °F 84.0 °F 63.3 °F 51% 30.02 in 10.0 mi NNW 3.5 mph - N/A   Clear
2:15 PM 85.6 °F 86.3 °F 62.4 °F 46% 30.01 in 10.0 mi Calm Calm - N/A   Clear
2:35 PM 85.3 °F 85.9 °F 62.6 °F 46% 30.00 in 10.0 mi East 3.5 mph - N/A   Clear
2:55 PM 86.2 °F 86.8 °F 62.6 °F 45% 30.00 in 10.0 mi Calm Calm - N/A   Clear
3:15 PM 86.4 °F 87.0 °F 63.0 °F 45% 29.99 in 10.0 mi Calm Calm - N/A   Clear
3:35 PM 86.2 °F 86.6 °F 62.1 °F 44% 29.99 in 10.0 mi SSE 4.6 mph - N/A   Clear
3:55 PM 85.5 °F 85.9 °F 61.7 °F 45% 29.98 in 10.0 mi Calm Calm - N/A   Clear
4:15 PM 86.2 °F 85.9 °F 60.3 °F 41% 29.98 in 10.0 mi Calm Calm - N/A   Clear
4:35 PM 86.5 °F 86.5 °F 61.2 °F 42% 29.97 in 10.0 mi SSE 3.5 mph - N/A   Clear
4:55 PM 86.0 °F 86.1 °F 61.3 °F 43% 29.97 in 10.0 mi South 4.6 mph - N/A   Clear
5:15 PM 85.6 °F 85.9 °F 61.5 °F 44% 29.97 in 10.0 mi Calm Calm - N/A   Clear
5:35 PM 86.0 °F 86.6 °F 62.2 °F 45% 29.96 in 10.0 mi Calm Calm - N/A   Clear
5:55 PM 85.8 °F 86.6 °F 62.6 °F 46% 29.96 in 10.0 mi SSW 3.5 mph - N/A   Clear
6:15 PM 85.8 °F 86.8 °F 63.7 °F 47% 29.96 in 10.0 mi Calm Calm - N/A   Clear
6:35 PM 85.3 °F 86.4 °F 63.5 °F 48% 29.96 in 10.0 mi Calm Calm - N/A   Clear
6:55 PM 84.7 °F 85.9 °F 63.7 °F 49% 29.97 in 10.0 mi South 3.5 mph - N/A   Clear
7:15 PM 83.3 °F 85.7 °F 66.7 °F 57% 29.97 in 10.0 mi Calm Calm - N/A   Scattered Clouds
7:35 PM 81.9 °F 84.4 °F 67.1 °F 61% 29.97 in 10.0 mi Calm Calm - N/A   Clear
7:55 PM 80.6 °F 82.9 °F 67.1 °F 63% 29.97 in 10.0 mi Calm Calm - N/A   Clear
8:15 PM 79.9 °F - 66.2 °F 63% 29.98 in 10.0 mi Calm Calm - N/A   Clear
8:35 PM 78.6 °F - 66.7 °F 67% 29.98 in 10.0 mi SE 3.5 mph - N/A   Clear
8:55 PM 77.5 °F - 67.3 °F 71% 29.99 in 10.0 mi SSE 3.5 mph - N/A   Clear
9:15 PM 75.6 °F - 67.6 °F 76% 29.99 in 10.0 mi Calm Calm - N/A   Clear
9:35 PM 74.3 °F - 68.0 °F 81% 29.99 in 10.0 mi Calm Calm - N/A   Clear
9:55 PM 74.3 °F - 66.7 °F 77% 29.99 in 10.0 mi Calm Calm - N/A   Clear
10:15 PM 73.4 °F - 67.3 °F 81% 29.98 in 10.0 mi Calm Calm - N/A   Clear
10:35 PM 74.3 °F - 67.1 °F 78% 29.99 in 10.0 mi South 3.5 mph - N/A   Clear
10:55 PM 73.9 °F - 66.7 °F 78% 29.98 in 10.0 mi SSE 3.5 mph - N/A   Clear
11:15 PM 73.8 °F - 66.4 °F 78% 29.98 in 10.0 mi SSE 4.6 mph - N/A   Clear
11:35 PM 72.5 °F - 67.1 °F 83% 29.98 in 10.0 mi South 4.6 mph - N/A   Clear
11:55 PM 72.0 °F - 68.9 °F 90% 29.98 in 10.0 mi Calm Calm - N/A   Clear